Location: Cul de Sac
(18.0387°N, 63.0654°W)
Time: 17:51:16
(UTC+00:00)

ASC 2 Rocket - Pass Details

Date: 29 October 2020
Orbit: 555 x 2345 km, 24.0° (Epoch: 28 November)

Event Time Altitude Azimuth Distance (km) Brightness Sun altitude
Rises 22:45:35 0° 289° (WNW) 2,721 7.5 -15.8°
Reaches altitude 10° 22:47:42 10° 293° (WNW) 1,866 6.4 -16.3°
Maximum altitude 22:51:49 62° 14° (NNE) 724 3.2 -17.3°
Enters shadow 22:53:52 33° 83° (E) 1,169 3.9 -17.8°
